Regional Weather Roundup
Issued by NWS Upton, NY

Home | Current Version | Previous Version | Text Only | Print | Product List | Glossary On
Versions: 1 2 3 4 5 6 7 8 9 10 11 12 13 14 15 16 17 18 19 20 21 22 23 24 25 26 27
000
ASUS41 KOKX 160705
RWROKX

REGIONAL WEATHER ROUNDUP
NATIONAL WEATHER SERVICE NEW YORK NY
300 AM EDT WED APR 16 2014

NOTE: "FAIR" INDICATES FEW OR NO CLOUDS BELOW 12,000 FEET WITH NO
SIGNIFICANT WEATHER AND/OR OBSTRUCTIONS TO VISIBILITY.

NYZ071-072-176-178-NJZ106-104-160800-
NEW YORK CITY METRO AREA


CITY           SKY/WX    TMP DP  RH WIND       PRES   REMARKS
CENTRAL PARK   CLOUDY    35  25  66 NW10G22   29.98S WCI  27
LAGUARDIA APRT CLOUDY    36  26  67 NW20      29.95R WCI  25
KENNEDY INTL   CLOUDY    36  26  67 NW25G33   29.94F WCI  24
NEWARK/LIBERTY CLOUDY    35  25  66 NW21G31   29.98R WCI  24
TETERBORO      CLOUDY    36  24  62 NW15G26   29.98R WCI  27
$$

NYZ177-179-078>081-160800-
LONG ISLAND NEW YORK

CITY           SKY/WX    TMP DP  RH WIND       PRES   REMARKS
FARMINGDALE    FRZ RAIN  33  30  88 N8        29.91F WCI  26
ISLIP          LGT SNOW  34  28  80 NW14G22   29.91F WCI  24
SHIRLEY        RAIN      33  31  92 NW10      29.92R FOG     WCI  25
WESTHAMPTON    FRZ RAIN  33  29  85 NW14G23   29.93R FOG     WCI  23
MONTAUK POINT    N/A     35  31  85 NW21G33   29.91R WCI  24
$$

NYZ052-065-067-160800-
HUDSON VALLEY

CITY           SKY/WX    TMP DP  RH WIND       PRES   REMARKS
WHITE PLAINS   CLOUDY    33  24  69 NW16      29.92S WCI  23
NEWBURGH       PTCLDY    32  25  74 NW16G25   29.98R WCI  21
MONTGOMERY     CLOUDY    31  20  63 NW16G28   30.00R WCI  20
POUGHKEEPSIE   CLOUDY    33  21  61 NW17G24   29.97R WCI  22
ALBANY         FLURRIES  29  20  69 NW20G26   30.02R WCI  16
$$

NJZ001-105-106-008-010-013-015-019>022-104-160800-
NEW JERSEY

CITY           SKY/WX    TMP DP  RH WIND       PRES   REMARKS
NEWARK/LIBERTY CLOUDY    35  25  66 NW21G31   29.98R WCI  24
TETERBORO      CLOUDY    36  24  62 NW15G26   29.98R WCI  27
CALDWELL       CLOUDY    33  22  63 NW9G25    29.99R WCI  25
MORRISTOWN     CLOUDY    36  23  60 NW14G22   30.00S WCI  27
SOMERVILLE     NOT AVBL
LINDEN         PTSUNNY   36  26  67 NW15G24   30.00R WCI  27
SUSSEX         CLOUDY    33  20  58 VRB7G25   29.99R WCI  27
ANDOVER          N/A     30  19  63 N12G21    30.01R WCI  20
TRENTON        CLOUDY    35  19  52 N23G32    30.00R WCI  23
MILLVILLE      CLOUDY    36  26  67 NW15      30.02R WCI  27
ATLANTIC CITY  CLOUDY    34  30  85 NW16      29.99R WCI  24
WRIGHTSTOWN    CLOUDY    35  25  69 N15G22    29.93R WCI  25
TOMS RIVER     CLOUDY    34  30  86 N6        29.97S WCI  29
BELMAR         CLOUDY    34  25  69 NW16G23   29.95F WCI  23
$$

PAZ047>061-062-071-160800-
EASTERN PENNSYLVANIA

CITY           SKY/WX    TMP DP  RH WIND       PRES   REMARKS
PHILADELPHIA   CLOUDY    36  20  52 NW17      30.04R WCI  26
ALLENTOWN      CLOUDY    31  18  58 NW13G26   30.04R WCI  21
SCRANTON       CLOUDY    27  19  72 N14G24    30.05F WCI  16
$$

CTZ002-004>006-009-010-012-RIZ004-006-007-MAZ004-011-015-160800-
SOUTHERN NEW ENGLAND
 IN CT

CITY           SKY/WX    TMP DP  RH WIND       PRES   REMARKS
BRADLEY INTL   CLOUDY    32  24  72 N16G25    29.89F WCI  21
HARTFORD       LGT SNOW  31  27  85 N9        29.95R FOG     WCI  23
DANBURY        CLOUDY    31  26  82 NW12G22   29.96R WCI  22
WTRBRY/OXFORD  CLOUDY    30  19  64 NW16G29   29.94R WCI  19
BRIDGEPORT     CLOUDY    34  29  82 NW10G17   29.98R WCI  26
MERIDEN        LGT SNOW  32  26  78 N13G18    29.94R WCI  22
NEW HAVEN      FRZ RAIN  33  27  78 N10G21    29.95R WCI  25
CHESTER        HVY RAIN  32  30  93 NW8G23    29.93R WCI  25
GROTON         LGT RAIN  33  32  96 NW18G26   29.90R WCI  22
WILLIMANTIC    MIX PCPN  32  27  81 N14G20    29.88R WCI  22

 IN RI

CITY           SKY/WX    TMP DP  RH WIND       PRES   REMARKS
PROVIDENCE     LGT RAIN  37  33  85 NW10      29.87R WCI  30
BLOCK ISLAND   CLOUDY    36  30  80 NW18G24   29.85R WCI  25
WESTERLY       LGT RAIN  34  34 100 NW10G18   29.87R FOG     WCI  26

 IN MA

CITY           SKY/WX    TMP DP  RH WIND       PRES   REMARKS
BOSTON         LGT RAIN  39  33  79 NW15G26   29.81R WCI  31
WORCESTER      MIX PCPN  29  27  92 NW16G28   29.81R FOG     WCI  17
WESTFIELD      CLOUDY    32  23  69 NW14      29.89F WCI  22
PROVINCETOWN   CLOUDY    39  37  93 MISG      29.79R
NANTUCKET      LGT RAIN  44  42  93 N18G28    29.75F FOG
$$

ANZ330-335-338-340-345-350-353-355-160800-
COASTAL MARINE OBSERVATIONS


STATION/POSITION TIME  SKY/WX   TEMP    WIND        PRES    VSBY  WAVE
                                AIR SEA DIR/SP/G                  HT/PER
                 (UTC)          (F)     (DEG/KT/KT) (MB)    (MI)  (FT/S)
NY HARB ENTRANCE 0700            37 42  330/ 25/ 29 1011.9
4S FIRE IS       0600               44                N/A           6/11
23SW MTP         0700            36 42  330/ 27/ 33 1011.8          8/11
HUDSON CANYON    0600            41 45  330/ 25/ 35 1010.3         12/11
EXECUTION ROCKS  0700            36 42  330/ 17/ 25   N/A
WESTERN LI SOUND 0700            36     300/ 12/ 16   N/A           1/ 2
CENTRAL LI SOUND 0600            34 41  310/ 23/ 27   N/A           3/ 4
EASTERN LI SOUND NOT AVBL
ROBBINS REEF     0700            36     320/ 18/ 25   N/A
$$


>>>>>>>>>>>>>>>>>>>>>>>>>>>> KEY <<<<<<<<<<<<<<<<<<<<<<<<<<<
>                                                          <
>     SKY/WX - SKY CONDITION/PRESENT WEATHER               <
>     TMP    - TEMPERATURE IN FAHRENHEIT                   <
>     DP     - DEWPOINT IN FAHRENHEIT                      <
>     RH     - RELATIVE HUMIDITY IN PERCENT                <
>     WIND   - DIRECTION AND SPEED IN MPH                  <
>     PRES   - MEAN SEA LEVEL PRESSURE IN INCHES OF HG     <
>     WCI    - WIND CHILL INDEX                            <
>     VSB    - VISIBILITY IN MILES                         <
>     HX     - HEAT INDEX                                  <
>     TC     - TEMPERATURE IN CELSIUS                      <
>     VRB    - VARIABLE WIND DIRECTION                     <
>                                                          <
>>>>>>>>>>>>>>>>>>>>>>>>>>>> KEY <<<<<<<<<<<<<<<<<<<<<<<<<<<





USA.gov is the U.S. government's official web portal to all federal, state and local government web resources and services.